Regional Weather Roundup
Issued by NWS

Home | Current Version | Previous Version | Graphics & Text | Print | Product List | Glossary On
Versions: 1 2 3 4 5 6 7 8 9 10 11 12 13 14 15 16 17 18 19 20 21 22 23 24 25 26 27 28 29 30 31 32 33 34 35 36 37 38 39 40 41 42 43 44 45 46 47 48 49 50
000
ASUS43 KOAX 211102
RWRNE

WEATHER ROUNDUP FOR NEBRASKA
NATIONAL WEATHER SERVICE OMAHA NE
600 AM CDT TUE OCT 21 2014

NOTES: SATELLITE DATA IS BEING USED TO AUGMENT CLOUD COVER ABOVE
       12000 FEET.
       "FAIR" INDICATES FEW OR NO CLOUDS BELOW 12,000 FEET WITH NO
       SIGNIFICANT WEATHER AND/OR OBSTRUCTIONS TO VISIBILITY.

  * THESE STATIONS DO NOT REPORT WEATHER SUCH AS RAIN...SNOW OR FOG.

NEZ001>004-019>022-054>056-211200-
NEBRASKA PANHANDLE

CITY           SKY/WX    TMP DP  RH WIND       PRES   REMARKS
SCOTTSBLUFF    CLEAR     47  41  80 SE7       29.96S
ALLIANCE         N/A     47  41  80 S7        29.97S
CHADRON        CLEAR     58  42  55 SW5       29.90S
SIDNEY         CLEAR     46  42  86 S6        30.01S
$$

NEZ057>060-069>072-079>082-211200-
SOUTHWEST NEBRASKA

CITY           SKY/WX    TMP DP  RH WIND       PRES   REMARKS
NORTH PLATTE   CLEAR     50  38  63 CALM      30.04S
IMPERIAL       CLEAR     53  42  66 S10       30.03S
LEXINGTON      CLEAR     41  38  88 E3        30.06S
MCCOOK         CLEAR     48  39  71 SE3       30.06S
OGALLALA       CLEAR     44  38  79 CALM      30.02S
$$

NEZ005>010-023>029-035>040-094-211200-
NORTH CENTRAL NEBRASKA

CITY           SKY/WX    TMP DP  RH WIND       PRES   REMARKS
VALENTINE      CLEAR     50  39  66 S12       29.96S
AINSWORTH      CLEAR     47  39  72 S6        29.99S
BROKEN BOW     CLEAR     40  36  86 CALM      30.04S
O`NEILL        CLEAR     47  42  81 SE7       30.03R
ORD            CLEAR     41  37  86 CALM      30.04S
THEDFORD       CLEAR     52  40  64 S5        30.02S
$$

NEZ041-046>049-061>064-073>077-083>087-211200-
SOUTH CENTRAL NEBRASKA

CITY           SKY/WX    TMP DP  RH WIND       PRES   REMARKS
GRAND ISLAND   CLEAR     47  41  80 S7        30.07S
AURORA         CLEAR     49  38  67 S5        30.08R
HASTINGS       CLEAR     49  39  68 S5        30.07S
HEBRON         CLEAR     38  35  89 CALM      30.10R
HOLDREGE       CLEAR     47  40  76 CALM      30.07S
KEARNEY *      CLEAR     41  36  81 CALM      30.08R
YORK           CLEAR     46  39  76 S3        30.09S
$$

NEZ011>018-030>034-042>045-211200-
NORTHEAST NEBRASKA

CITY           SKY/WX    TMP DP  RH WIND       PRES   REMARKS
NORFOLK        CLEAR     41  35  79 CALM      30.08R
ALBION         CLEAR     41  35  79 SE3       30.07S
BLAIR          CLEAR     50  39  66 CALM      30.09S
COLUMBUS *     CLEAR     36  30  80 E3        30.10S
FREMONT        CLEAR     42  40  94 CALM      30.10S
TEKAMAH        CLEAR     37  34  89 NW3       30.11R
WAYNE          CLEAR     35  33  93 NE3       30.09S
$$

NEZ050>053-065>068-078-088>093-211200-
SOUTHEAST NEBRASKA

CITY           SKY/WX    TMP DP  RH WIND       PRES   REMARKS
LINCOLN        CLEAR     37  34  89 NE3       30.11S
OMAHA EPPLEY   CLEAR     42  40  92 CALM      30.11R
BEATRICE       CLEAR     39  36  91 CALM      30.10S FOG
FALLS CITY     CLEAR     38  36  92 CALM      30.10R
NEBRASKA CITY  CLEAR     50  32  50 SW5       30.10R
PLATTSMOUTH    CLEAR     48  35  61 CALM      30.10R
$$

NEZ044-045-051>053-067-211200-
OMAHA AREA

CITY           SKY/WX    TMP DP  RH WIND       PRES   REMARKS
OMAHA EPPLEY   CLEAR     42  40  92 CALM      30.11R
BLAIR          CLEAR     50  39  66 CALM      30.09S
FREMONT        CLEAR     42  40  94 CALM      30.10S
MILLARD        CLEAR     41  40  96 CALM      30.10R
OFFUTT AFB     CLEAR     37  37 100 CALM      30.10R
PLATTSMOUTH    CLEAR     48  35  61 CALM      30.10R
WAHOO          FAIR      38  35  87 CALM      30.09S FOG
$$


USA.gov is the U.S. government's official web portal to all federal, state and local government web resources and services.